Hourly Data Report for June 24, 2021

ATIKOKAN (AUT)
ONTARIO
Current Station Operator: ECCC - MSC

48°45'40.000" N
91°37'41.000" W
389.30 m
6020LPQ
71747
WCH

Download Data

Hourly Data (June 2021)
Hourly Data Report for June 24, 2021
TIME
LST
Temp Definition
°C
Dew Point Definition
°C
Rel Hum Definition
%
Precip. Amount Definition
mm

Wind Dir Definition
10's deg

Wind Spd Definition
km/h
Visibility Definition
km
Stn Press Definition
kPa
Hmdx Definition


Wind Chill Definition


Weather Definition


00:00 17.1 15.9 93 0.0 29 3   95.87     LegendNANA
01:00 16.3 15.5 95 0.0 34 3   95.88     LegendNANA
02:00 15.0 14.4 96 0.0 33 4   95.97     LegendNANA
03:00 14.6 13.7 94 0.0 36 4   96.02     LegendNANA
04:00 12.7 12.0 96 0.0 1 2   96.11     LegendNANA
05:00 12.4 12.1 98 0.0 22 3   96.24     LegendNANA
06:00 14.9 13.2 90 0.0 30 5   96.31     LegendNANA
07:00 16.7 12.9 78 0.0 33 6   96.35     LegendNANA
08:00 18.5 13.4 72 0.0 34 8   96.35     LegendNANA
09:00 20.1 12.3 60 0.0 34 6   96.43     LegendNANA
10:00 21.1 11.7 55 0.0 30 6   96.48     LegendNANA
11:00 21.9 10.6 49 0.0 31 7   96.46     LegendNANA
12:00 21.8 9.2 45 0.0 32 11   96.45     LegendNANA
13:00 22.7 9.9 44 0.0 33 10   96.45     LegendNANA
14:00 23.9 10.4 42 0.0 32 12   96.46 25   LegendNANA
15:00 23.6 10.3 43 0.0 33 6   96.43 25   LegendNANA
16:00 24.2 11.9 46 0.0 26 9   96.40 26   LegendNANA
17:00 23.6 10.7 44 0.0 26 9   96.41 25   LegendNANA
18:00 23.3 10.8 45 0.0 25 9   96.42 25   LegendNANA
19:00 22.5 12.2 52 0.0 23 5   96.43 25   LegendNANA
20:00 18.4 12.5 68 0.0 0 1   96.47     LegendNANA
21:00 15.7 12.5 81 0.0   0   96.56     LegendNANA
22:00 13.7 12.6 93 0.0   0   96.59     LegendNANA
23:00 12.6 12.0 96 0.0   0   96.60     LegendNANA

Notes on Data Quality.

Legend

  • E = Estimated
  • M = Missing
  • NA = Not Available*
  • [empty] = Indicates an unobserved value
Date modified: